Hayward, WI

2:39 AM CST on December 11, 2019 (GMT -0600)
Sawyer County

Weather History for KHYR - November, 2019

Change the Weather History Date:

Tuesday, November 12, 2019

  Actual Average Record
Temperature  
Mean Temperature 7 °F -  
Max Temperature 16 °F 31 °F 63 °F (2011)
Min Temperature -2 °F 9 °F -14 °F (1966)
Degree Days  
Heating Degree Days 58    
Moisture  
Dew Point -3 °F    
Average Humidity 61    
Maximum Humidity 79    
Minimum Humidity 39    
Precipitation  
Precipitation 0.00 in - - ()
Sea Level Pressure  
Sea Level Pressure 30.42 in    
Wind  
Wind Speed 5 mph ()    
Max Wind Speed 15 mph    
Max Gust Speed 25 mph    
Visibility 10.0 miles    
Events      
Averages and records for this station are not official NWS values.
T = Trace of Precipitation, MM = Missing Value Source: Averaged Metar Reports

Daily Weather History Graph

Daily Weather History Graph

Search for Another Location

Airport or City:

Astronomy

Nov. 12, 2019 Rise Set
Actual Time 7:01 AM CST 4:37 PM CST
Civil Twilight 6:29 AM CST 5:09 PM CST
Nautical Twilight 5:53 AM CST 5:45 PM CST
Astronomical Twilight 5:18 AM CST 6:20 PM CST
Moon 5:06 PM CST (11/12) 6:50 AM CST (11/12)
Length of Visible Light 10h 40m
Length of Day
9h 35m
Full, 100% of the Moon is Illuminated
Nov 12
Full
Nov 19
Last Quarter
Nov 26
New
Dec 4
First Quarter
Dec 11
Full

Hourly Weather History & Observations

Time (CST) Temp. Windchill Dew Point Humidity Pressure Visibility Wind Dir Wind Speed Gust Speed Precip Events Conditions
12:53 AM 3.0 °F -6.4 °F -4.0 °F 73% 30.59 in 10.0 mi WNW 4.6 mph - N/A   Clear
1:53 AM 1.9 °F - -4.0 °F 76% 30.58 in 10.0 mi Calm Calm - N/A   Clear
2:26 AM 1.9 °F - -4.0 °F 76% 30.49 in 10.0 mi Calm Calm - N/A   Mostly Cloudy
2:53 AM 1.9 °F - -5.1 °F 72% 30.58 in 10.0 mi Calm Calm - N/A   Partly Cloudy
3:53 AM -0.0 °F -7.9 °F -5.1 °F 79% 30.57 in 10.0 mi WSW 3.5 mph - N/A   Clear
4:53 AM -0.9 °F -8.9 °F -6.0 °F 79% 30.58 in 10.0 mi SSW 3.5 mph - N/A   Clear
5:53 AM -2.0 °F - -8.0 °F 76% 30.57 in 10.0 mi Calm Calm - N/A   Clear
6:53 AM -2.9 °F - -8.0 °F 79% 30.56 in 10.0 mi Calm Calm - N/A   Clear
7:53 AM -0.9 °F -11.0 °F -6.0 °F 79% 30.56 in 10.0 mi SSW 4.6 mph - N/A   Clear
8:53 AM 3.0 °F -6.4 °F -2.9 °F 76% 30.57 in 10.0 mi SSW 4.6 mph - N/A   Clear
9:53 AM 7.0 °F -1.7 °F -2.0 °F 67% 30.54 in 10.0 mi SW 4.6 mph - N/A   Clear
10:53 AM 10.0 °F -2.9 °F -2.9 °F 56% 30.51 in 10.0 mi SSW 9.2 mph - N/A   Clear
11:53 AM 12.0 °F - -4.0 °F 49% 30.48 in 10.0 mi North - - N/A   Clear
12:53 PM 14.0 °F 2.0 °F -5.1 °F 43% 30.44 in 10.0 mi South 9.2 mph - N/A   Clear
1:53 PM 16.0 °F 5.3 °F -5.1 °F 39% 30.41 in 10.0 mi SW 8.1 mph - N/A   Clear
2:53 PM 16.0 °F 2.9 °F -2.9 °F 43% 30.36 in 10.0 mi South 11.5 mph - N/A   Clear
3:53 PM 15.1 °F 1.8 °F -2.0 °F 47% 30.34 in 10.0 mi South 11.5 mph - N/A   Clear
4:53 PM 12.9 °F 1.6 °F -2.0 °F 51% 30.29 in 10.0 mi South 8.1 mph - N/A   Clear
5:53 PM 12.9 °F -0.2 °F -2.0 °F 51% 30.27 in 10.0 mi South 10.4 mph 21.9 mph N/A   Clear
6:53 PM 12.9 °F -1.6 °F -2.0 °F 51% 30.25 in 10.0 mi South 12.7 mph 20.7 mph N/A   Clear
7:53 PM 12.9 °F -0.2 °F -0.9 °F 54% 30.23 in 10.0 mi South 10.4 mph - N/A   Clear
8:53 PM 12.9 °F -0.9 °F -0.9 °F 54% 30.19 in 10.0 mi South 11.5 mph 23.0 mph N/A   Clear
9:53 PM 14.0 °F 1.2 °F -0.9 °F 52% 30.17 in 10.0 mi South 10.4 mph 20.7 mph N/A   Clear
10:53 PM 14.0 °F -1.4 °F -0.0 °F 54% 30.14 in 10.0 mi South 15.0 mph 25.3 mph N/A   Partly Cloudy
11:53 PM 15.1 °F 1.1 °F 1.0 °F 54% 30.12 in 10.0 mi South 12.7 mph - N/A   Mostly Cloudy